La Push, WA

9:13 AM PDT on September 29, 2016 (GMT -0700)
Quillayute

Weather History for KUIL - April, 2013

Change the Weather History Date:

Wednesday, April 3, 2013

  Actual Average Record
Temperature  
Mean Temperature 52 °F 46 °F  
Max Temperature 59 °F 53 °F 65 °F (1972)
Min Temperature 44 °F 38 °F 26 °F (2007)
Degree Days  
Heating Degree Days 13 20  
Month to date heating degree days 41 60  
Since 1 July heating degree days 4317 4553  
Cooling Degree Days 0 0  
Month to date cooling degree days 0 0  
Year to date cooling degree days 0 0  
Growing Degree Days 2 (Base 50)    
Moisture  
Dew Point 43 °F    
Average Humidity 77    
Maximum Humidity 92    
Minimum Humidity 61    
Precipitation  
Precipitation 0.00 in 0.31 in 2.42 in (1991)
Month to date precipitation T 0.95  
Year to date precipitation 38.10 36.74  
Sea Level Pressure  
Sea Level Pressure 30.11 in    
Wind  
Wind Speed 3 mph (North)    
Max Wind Speed 10 mph    
Max Gust Speed 13 mph    
Visibility 8 miles    
Events      
T = Trace of Precipitation, MM = Missing Value Source: NWS Daily Summary

Daily Weather History Graph

Daily Weather History Graph

Search for Another Location

Airport or City:

Trip Planner

Search our weather history database for the weather conditions in past years. The results will help you decide how hot, cold, wet, or windy it might be!

Date:

Astronomy

Apr. 03, 2013 Rise Set
Actual Time 6:51 AM PDT 7:51 PM PDT
Civil Twilight 6:20 AM PDT 8:23 PM PDT
Nautical Twilight 5:42 AM PDT 9:01 PM PDT
Astronomical Twilight 5:02 AM PDT 9:41 PM PDT
Moon 3:05 AM PDT (4/3) 12:43 PM PDT (4/3)
Length of Visible Light 14h 03m
Length of Day
12h 59m
Last Quarter, 43% of the Moon is Illuminated
Apr 3
Last Quarter
Apr 10
New
Apr 18
First Quarter
Apr 25
Full
May 2
Last Quarter

Hourly Weather History & Observations

Time (PDT) Temp. Windchill Dew Point Humidity Pressure Visibility Wind Dir Wind Speed Gust Speed Precip Events Conditions
12:09 AM 46.4 °F - 42.8 °F 87% 30.20 in 9.0 mi Calm Calm - N/A   Overcast
12:16 AM 46.4 °F - 42.8 °F 87% 30.20 in 9.0 mi Calm Calm - N/A   Overcast
12:53 AM 46.9 °F - 43.0 °F 86% 30.21 in 9.0 mi Calm Calm - N/A   Overcast
1:53 AM 46.9 °F - 43.0 °F 86% 30.20 in 5.0 mi Calm Calm - N/A   Overcast
2:11 AM 46.4 °F - 42.8 °F 87% 30.20 in 6.0 mi Calm Calm - N/A   Overcast
2:26 AM 46.4 °F - 42.8 °F 87% 30.20 in 6.0 mi Calm Calm - N/A   Overcast
2:53 AM 46.9 °F - 43.0 °F 86% 30.19 in 7.0 mi Calm Calm - N/A   Overcast
3:53 AM 45.0 °F - 42.1 °F 90% 30.19 in 8.0 mi Calm Calm - N/A   Overcast
4:53 AM 45.0 °F - 41.0 °F 86% 30.18 in 9.0 mi Calm Calm - N/A   Overcast
5:25 AM 44.6 °F - 41.0 °F 87% 30.17 in 9.0 mi Calm Calm - N/A   Overcast
5:34 AM 44.6 °F - 41.0 °F 87% 30.17 in 8.0 mi Calm Calm - N/A   Overcast
5:53 AM 45.0 °F 43.5 °F 41.0 °F 86% 30.17 in 7.0 mi ENE 3.5 mph - N/A   Overcast
6:05 AM 44.6 °F 43.1 °F 42.8 °F 93% 30.16 in 8.0 mi NE 3.5 mph - N/A   Overcast
6:53 AM 46.0 °F - 42.1 °F 86% 30.17 in 9.0 mi Calm Calm - N/A   Overcast
7:53 AM 46.9 °F - 42.1 °F 83% 30.16 in 8.0 mi Calm Calm - N/A   Overcast
8:53 AM 48.0 °F - 43.0 °F 83% 30.15 in 7.0 mi Calm Calm - N/A   Overcast
9:53 AM 50.0 °F - 42.1 °F 74% 30.14 in 9.0 mi Calm Calm - N/A   Overcast
10:53 AM 51.1 °F - 42.1 °F 71% 30.15 in 8.0 mi SW 3.5 mph - N/A   Overcast
11:53 AM 53.1 °F - 43.0 °F 69% 30.15 in 8.0 mi WSW 5.8 mph - N/A   Mostly Cloudy
12:53 PM 55.0 °F - 43.0 °F 64% 30.14 in 8.0 mi SSW 4.6 mph - N/A   Overcast
1:15 PM 53.6 °F - 42.8 °F 67% 30.13 in 8.0 mi Calm Calm - N/A   Scattered Clouds
1:53 PM 55.0 °F - 43.0 °F 64% 30.13 in 8.0 mi WNW 6.9 mph - N/A   Partly Cloudy
2:53 PM 57.9 °F - 44.1 °F 60% 30.11 in 8.0 mi NNW 6.9 mph - N/A   Clear
3:53 PM 57.9 °F - 45.0 °F 62% 30.08 in 8.0 mi North 8.1 mph - N/A   Clear
4:53 PM 57.0 °F - 45.0 °F 64% 30.06 in 8.0 mi North 6.9 mph - N/A   Partly Cloudy
5:53 PM 57.0 °F - 46.0 °F 67% 30.02 in 8.0 mi North 5.8 mph - N/A   Partly Cloudy
6:53 PM 57.9 °F - 45.0 °F 62% 29.99 in 8.0 mi NNE 5.8 mph - N/A   Partly Cloudy
7:53 PM 55.9 °F - 44.1 °F 64% 29.97 in 8.0 mi East 3.5 mph - N/A   Overcast
8:53 PM 54.0 °F - 43.0 °F 66% 29.96 in 9.0 mi Calm Calm - N/A   Mostly Cloudy
9:53 PM 51.1 °F - 44.1 °F 77% 29.96 in 9.0 mi NE 4.6 mph - N/A   Clear
10:53 PM 52.0 °F - 44.1 °F 74% 29.95 in 9.0 mi Calm Calm - N/A   Overcast
11:53 PM 52.0 °F - 44.1 °F 74% 29.94 in 9.0 mi Calm Calm - N/A   Overcast